Location: Gwatt
(46.7204°N, 7.6223°E)
Time: 01:11:55
(UTC+00:00)

Envisat - Pass Details

Date: 02 December 2020
Orbit: 764 x 766 km, 98.1° (Epoch: 19 January)

Event Time Altitude Azimuth Distance (km) Brightness Sun altitude
Rises 04:40:53 0° 22° (NNE) 3,245 6.4 -22.2°
Reaches altitude 10° 04:43:26 10° 32° (NNE) 2,313 5.7 -21.8°
Maximum altitude 04:47:59 32° 95° (E) 1,299 4.8 -21.0°
Drops below altitude 10° 04:52:29 10° 158° (SSE) 2,296 5.9 -20.3°
Sets 04:55:00 0° 168° (SSE) 3,217 6.5 -19.8°
